Home   Weather   Bergheim   Past weeks

Flag for Germany Past Weather in Bergheim, North Rhine-Westphalia, Germany — Yesterday and Last 2 Weeks

Now
23 °F

Passing clouds.


Feels Like: 18 °F
Forecast: 20 / 30 °F
Wind: 3 mph from Northeast

Location: Noervenich

Current Time: Jan 17, 2017 at 10:54:37 pm

Latest Report: Jan 17, 2017 at 10:20 pm


Visibility: N/A

Pressure: 30.66 "Hg

Humidity: 93%

Dew Point: 21 °F

Location of BergheimLocation

Past Weather in Bergheim — Graph

°F

Bergheim Temperature Yesterday

Maximum temperature yesterday: 36 °F (at 11:20 am)
Minimum temperature yesterday: 25 °F (at 10:20 pm)
Average temperature yesterday: 32 °F

High & Low Weather Summary for the Past Weeks

 TemperatureHumidityPressure
High46 °F (Jan 11, 12:20 pm)100% (Jan 3, 5:20 am)30.74 "Hg (Jan 3, 5:20 am)
Low18 °F (Jan 6, 5:20 am)55% (Jan 6, 3:20 pm)28.94 "Hg (Jan 13, 1:20 am)
Average34 °F86%30.12 "Hg
* Reported Jan 2 9:20 pm — Jan 17 9:20 pm, Bergheim, Weather by CustomWeather, © 2017

Note: Actual official high and low records may vary slightly from our data, if they occured in-between our weather recording intervals... More about our weather records

Advertising

Bergheim Weather History for the Previous 24 Hours

Scroll right to see more
 ConditionsComfort  
Time TempWeatherWind HumidityBarometerVisibility
9:20 pm
Tue, Jan 17
23 °FPassing clouds.2 mph93%30.66 "HgN/A
8:47 pm21 °FPassing clouds.2 mph93%30.66 "HgN/A
8:20 pm23 °FPassing clouds.1 mph93%30.66 "HgN/A
7:20 pm25 °FPassing clouds.2 mph86%30.63 "HgN/A
6:20 pm27 °FPassing clouds.No wind86%30.63 "HgN/A
5:20 pm27 °FPassing clouds.7 mph80%30.63 "HgN/A
4:20 pm30 °FScattered clouds.7 mph80%30.60 "HgN/A
3:20 pm30 °FBroken clouds.2 mph75%30.60 "HgN/A
2:20 pm30 °FPartly sunny.1 mph75%30.60 "HgN/A
1:20 pm28 °FPartly sunny.1 mph80%30.63 "HgN/A
12:20 pm27 °FPartly sunny.3 mph80%30.63 "HgN/A
11:20 am27 °FPassing clouds.6 mph80%30.63 "HgN/A
10:20 am23 °FPassing clouds.2 mph86%30.60 "HgN/A
9:20 am18 °FPassing clouds.1 mph93%30.60 "HgN/A
8:20 am18 °FPassing clouds.No wind93%30.60 "HgN/A
7:20 am19 °FPassing clouds.1 mph86%30.57 "HgN/A
6:20 am23 °FPassing clouds.5 mph80%30.57 "HgN/A
5:20 am23 °FCold.3 mph86%30.54 "HgN/A
4:20 am25 °FPassing clouds.6 mph86%30.54 "HgN/A
3:48 am21 °FPassing clouds.7 mph93%30.54 "HgN/A
3:20 am21 °FPassing clouds.3 mph93%30.51 "HgN/A
2:20 am23 °FPassing clouds.1 mph93%30.51 "HgN/A
1:52 am23 °FPassing clouds.2 mph93%30.51 "HgN/A
1:20 am23 °FCold.3 mph93%30.48 "HgN/A
12:20 am23 °FCold.5 mph93%30.48 "HgN/A
11:20 pm
Mon, Jan 16
25 °FCold.5 mph86%30.48 "HgN/A
10:20 pm25 °FCold.6 mph93%30.45 "HgN/A
Weather by CustomWeather, © 2017

See weather overviewHow to use our weather pages